Flag for U.S.A. Weather past 2 weeks in Charlotte, North Carolina, U.S.A.

Now
90 °F

Broken clouds.


Feels Like: 91 °F
Forecast: 69 / 89 °F
Wind: 5 mph from Northwest

Location: Charlotte / Douglas International Airport

Current Time: Aug 30, 2014 at 5:04:18 PM

Latest Report: Aug 30, 2014 at 3:52 PM


Visibility: 10 mi

Pressure: 30.11 "Hg

Humidity: 41%

Dew point: 63 °F

Location of CharlotteLocation

Historic Weather in Charlotte — Graph

°F

Charlotte temperature yesterday

Maximum temperature yesterday: 87 °F (at 5:52 PM)
Minimum temperature yesterday: 71 °F (at 4:52 AM)
Average temperature yesterday: 79 °F

Past Weeks' High & Low Weather Summary

 TemperatureHumidityPressure
High93 °F (Aug 21, 2:52 PM)97% (Aug 20, 1:52 AM)30.20 "Hg (Aug 20, 1:52 AM)
Low58 °F (Aug 27, 5:52 AM)28% (Aug 27, 3:52 PM)29.78 "Hg (Aug 18, 4:52 PM)
Average78 °F68%30.00 "Hg
* Reported Aug 15 3:52 PM — Aug 30 3:52 PM, Charlotte, Weather by CustomWeather, © 2014

Note: Actual official high and low records may vary slightly from our data, if they occured in-between our weather recording intervals... More about our weather records

Advertising

Charlotte weather history for previous 24 hours

 ConditionsComfort  
Time TempWeatherWind HumidityBarometerVisibility
3:52 PM
Aug 30
90 °FBroken clouds.5 mph41%30.11 "Hg10 mi
2:52 PM89 °FPartly sunny.8 mph43%30.14 "Hg10 mi
1:52 PM89 °FPartly sunny.6 mph46%30.16 "Hg10 mi
12:52 PM87 °FPartly sunny.6 mph51%30.17 "Hg10 mi
11:52 AM84 °FScattered clouds.8 mph57%30.19 "Hg10 mi
10:52 AM82 °FPassing clouds.No wind67%30.20 "Hg10 mi
9:52 AM79 °FPassing clouds.3 mph74%30.19 "Hg10 mi
8:52 AM76 °FScattered clouds.6 mph82%30.19 "Hg10 mi
7:52 AM74 °FPassing clouds.3 mph85%30.19 "Hg10 mi
6:52 AM71 °FPassing clouds.No wind90%30.17 "Hg10 mi
5:52 AM69 °FPassing clouds.No wind93%30.16 "Hg7 mi
4:52 AM71 °FPassing clouds.No wind90%30.15 "Hg10 mi
3:52 AM73 °FPassing clouds.No wind88%30.14 "Hg9 mi
2:52 AM74 °FPassing clouds.5 mph88%30.15 "Hg9 mi
1:52 AM76 °FPassing clouds.6 mph85%30.15 "Hg10 mi
12:52 AM77 °FPassing clouds.8 mph82%30.15 "Hg10 mi
11:52 PM
Aug 29
78 °FPassing clouds.7 mph79%30.13 "Hg10 mi
10:52 PM79 °FPassing clouds.7 mph74%30.13 "Hg10 mi
9:52 PM79 °FPassing clouds.8 mph74%30.12 "Hg10 mi
8:52 PM80 °FScattered clouds.7 mph71%30.10 "Hg10 mi
7:52 PM83 °FScattered clouds.8 mph61%30.07 "Hg10 mi
6:52 PM85 °FScattered clouds.7 mph55%30.07 "Hg10 mi
5:52 PM87 °FScattered clouds.7 mph51%30.06 "Hg10 mi
Weather by CustomWeather, © 2014

See weather overviewHow to use our weather pages